Flag for Ireland Weather past 2 weeks in Waterford, Ireland

Now
55 °F

Broken clouds.


Feels Like: 53 °F
Forecast: 45 / 59 °F
Wind: 10 mph from Northwest

Location: Cork Airport

Current Time: Sep 2, 2015 at 12:39:00 PM

Latest Report: Sep 2, 2015 at 12:00 PM


Visibility: N/A

Pressure: 30.21 "Hg

Humidity: 67%

Dew point: 45 °F

Location of WaterfordLocation

Historic Weather in Waterford — Graph

°F

Waterford temperature yesterday

Maximum temperature yesterday: 61 °F (at 5:00 PM)
Minimum temperature yesterday: 48 °F (at 4:00 AM)
Average temperature yesterday: 54 °F

Past Weeks' High & Low Weather Summary

 TemperatureHumidityPressure
High68 °F (Aug 19, 2:00 PM)100% (Aug 18, 9:00 PM)30.24 "Hg (Aug 18, 9:00 PM)
Low45 °F (Aug 27, 7:00 AM)48% (Aug 24, 1:30 PM)29.39 "Hg (Aug 26, 12:30 AM)
Average56 °F89%29.84 "Hg
* Reported Aug 18 11:00 AM — Sep 2 11:00 AM, Waterford, Weather by CustomWeather, © 2015

Note: Actual official high and low records may vary slightly from our data, if they occured in-between our weather recording intervals... More about our weather records

Advertising

Waterford weather history for previous 24 hours

 ConditionsComfort  
Time TempWeatherWind HumidityBarometerVisibility
11:00 AM
Wed, Sep 2
55 °FPartly sunny.13 mph72%30.21 "HgN/A
10:30 AM54 °FPartly sunny.13 mph77%30.24 "HgN/A
10:00 AM54 °FPartly sunny.12 mph77%30.24 "HgN/A
9:30 AM52 °FPartly sunny.12 mph82%30.24 "HgN/A
9:00 AM50 °FPartly sunny.13 mph88%30.24 "HgN/A
8:30 AM48 °FScattered clouds.7 mph87%30.24 "HgN/A
8:00 AM46 °FPassing clouds.6 mph93%30.24 "HgN/A
7:30 AM46 °FPassing clouds.6 mph93%30.21 "HgN/A
7:00 AM46 °FPassing clouds.9 mph93%30.21 "HgN/A
6:30 AM46 °FPassing clouds.8 mph93%30.21 "HgN/A
6:00 AM46 °FPassing clouds.7 mph93%30.21 "HgN/A
5:30 AM46 °FPassing clouds.6 mph93%30.21 "HgN/A
5:00 AM46 °FPassing clouds.7 mph93%30.24 "HgN/A
4:30 AM46 °FPassing clouds.8 mph93%30.24 "HgN/A
4:00 AM46 °FPassing clouds.12 mph93%30.24 "HgN/A
3:30 AM46 °FPassing clouds.9 mph93%30.24 "HgN/A
3:00 AM48 °FPassing clouds.8 mph87%30.24 "HgN/A
2:30 AM48 °FPassing clouds.9 mph87%30.24 "HgN/A
2:00 AM48 °FPassing clouds.7 mph94%30.24 "HgN/A
1:30 AM48 °FPassing clouds.9 mph94%30.24 "HgN/A
1:00 AM50 °FPassing clouds.12 mph88%30.24 "HgN/A
12:30 AM50 °FPassing clouds.12 mph88%30.24 "HgN/A
12:00 AM50 °FPassing clouds.7 mph94%30.24 "HgN/A
10:30 PM
Tue, Sep 1
52 °FPassing clouds.9 mph88%30.24 "HgN/A
10:00 PM52 °FPartly cloudy.12 mph94%30.24 "HgN/A
9:30 PM54 °FPartly cloudy.12 mph82%30.24 "HgN/A
9:00 PM54 °FBroken clouds.9 mph82%30.24 "HgN/A
8:30 PM54 °FBroken clouds.9 mph82%30.24 "HgN/A
8:00 PM54 °FScattered showers. Broken clouds.10 mph82%30.21 "HgN/A
7:30 PM54 °FScattered showers. Partly sunny.15 mph82%30.21 "HgN/A
7:00 PM55 °FPartly sunny.12 mph77%30.21 "HgN/A
6:30 PM59 °FPartly sunny.12 mph63%30.21 "HgN/A
6:00 PM59 °FPartly sunny.12 mph68%30.21 "HgN/A
5:30 PM59 °FPartly sunny.16 mph63%30.21 "HgN/A
5:00 PM61 °FPartly sunny.15 mph59%30.21 "HgN/A
4:00 PM57 °FPartly sunny.12 mph63%30.21 "HgN/A
3:30 PM59 °FPartly sunny.16 mph63%30.24 "HgN/A
3:00 PM59 °FBroken clouds.12 mph63%30.24 "HgN/A
2:30 PM59 °FBroken clouds.14 mph63%30.24 "HgN/A
2:00 PM59 °FBroken clouds.13 mph63%30.24 "HgN/A
1:30 PM59 °FPartly sunny.14 mph63%30.24 "HgN/A
1:00 PM59 °FScattered clouds.12 mph68%30.24 "HgN/A
12:30 PM59 °FPartly sunny.13 mph63%30.24 "HgN/A
12:00 PM55 °FPartly sunny.13 mph72%30.24 "HgN/A
Weather by CustomWeather, © 2015

See weather overviewHow to use our weather pages